Flag for Lithuania Weather past 2 weeks in Vilnius, Lithuania

Now
57 °F

Partly sunny.


Feels Like: 57 °F
Forecast: 50 / 67 °F
Wind: 3 mph from Northeast

Location: Vilnius Airport

Current Time: Sep 2, 2014 at 8:33:45 PM

Latest Report: Sep 2, 2014 at 8:20 PM


Visibility: N/A

Pressure: 30.24 "Hg

Humidity: 82%

Dew point: 52 °F

Location of VilniusLocation

Historic Weather in Vilnius — Graph

°F

Vilnius temperature yesterday

Maximum temperature yesterday: 61 °F (at 2:50 PM)
Minimum temperature yesterday: 48 °F (at 12:20 AM)
Average temperature yesterday: 53 °F

Past Weeks' High & Low Weather Summary

 TemperatureHumidityPressure
High72 °F (Aug 20, 1:20 PM)100% (Aug 21, 9:50 PM)30.21 "Hg (Aug 21, 9:50 PM)
Low41 °F (Aug 30, 4:20 AM)40% (Aug 20, 4:50 PM)29.59 "Hg (Aug 25, 2:50 AM)
Average56 °F82%29.89 "Hg
* Reported Aug 18 7:20 PM — Sep 2 7:20 PM, Vilnius, Weather by CustomWeather, © 2014

Note: Actual official high and low records may vary slightly from our data, if they occured in-between our weather recording intervals... More about our weather records

Advertising

Vilnius weather history for previous 24 hours

 ConditionsComfort  
Time TempWeatherWind HumidityBarometerVisibility
7:20 PM
Sep 2
59 °FPartly sunny.5 mph77%30.21 "HgN/A
6:50 PM59 °FPartly sunny.6 mph77%30.21 "HgN/A
6:20 PM59 °FPartly sunny.6 mph77%30.21 "HgN/A
5:50 PM59 °FPartly sunny.7 mph77%30.21 "HgN/A
5:20 PM59 °FPartly sunny.6 mph72%30.21 "HgN/A
4:50 PM59 °FPartly sunny.7 mph72%30.21 "HgN/A
4:20 PM61 °FPartly sunny.7 mph68%30.21 "HgN/A
3:50 PM61 °FPartly sunny.7 mph68%30.21 "HgN/A
3:20 PM59 °FBroken clouds.8 mph77%30.21 "HgN/A
2:50 PM61 °FPartly sunny.7 mph72%30.21 "HgN/A
2:20 PM59 °FPartly sunny.8 mph77%30.21 "HgN/A
1:50 PM59 °FPartly sunny.9 mph77%30.21 "HgN/A
1:20 PM59 °FPartly sunny.8 mph77%30.21 "HgN/A
12:50 PM59 °FOvercast.7 mph77%30.21 "HgN/A
12:20 PM57 °FOvercast.8 mph82%30.18 "HgN/A
11:50 AM57 °FOvercast.8 mph82%30.18 "HgN/A
11:20 AM57 °FMostly cloudy.7 mph82%30.18 "HgN/A
10:50 AM55 °FMostly cloudy.8 mph88%30.18 "Hg4 mi
10:20 AM55 °FMostly cloudy.8 mph88%30.18 "Hg4 mi
9:50 AM54 °FMostly cloudy.8 mph94%30.15 "Hg4 mi
9:20 AM54 °FFog.8 mph94%30.15 "Hg2 mi
8:50 AM52 °FFog.6 mph100%30.15 "Hg2 mi
8:20 AM52 °FFog.6 mph100%30.15 "Hg2 mi
8:00 AM52 °FFog.6 mph100%30.15 "Hg2 mi
7:20 AM50 °FFog.6 mph100%30.15 "Hg1 mi
6:50 AM50 °FFog.6 mph100%30.15 "Hg1 mi
6:20 AM50 °FFog.7 mph100%30.12 "Hg1 mi
5:50 AM50 °FFog.8 mph100%30.12 "Hg1 mi
5:20 AM50 °FSleet. Overcast.6 mph100%30.12 "Hg1 mi
4:50 AM48 °FFog.7 mph100%30.12 "Hg2 mi
4:20 AM46 °FPassing clouds.7 mph93%30.12 "Hg4 mi
3:50 AM46 °FPassing clouds.8 mph100%30.12 "Hg4 mi
3:20 AM46 °FPassing clouds.6 mph100%30.12 "Hg4 mi
2:50 AM48 °FPassing clouds.6 mph94%30.12 "Hg4 mi
2:20 AM50 °FPassing clouds.6 mph94%30.12 "Hg4 mi
1:50 AM52 °FPassing clouds.2 mph94%30.12 "Hg4 mi
1:20 AM50 °FPassing clouds.2 mph94%30.12 "Hg4 mi
12:50 AM50 °FPassing clouds.1 mph94%30.12 "Hg4 mi
12:20 AM50 °FFog.No wind94%30.12 "Hg4 mi
11:20 PM
Sep 1
48 °FFog.5 mph94%30.09 "Hg2 mi
10:50 PM48 °FFog.2 mph100%30.09 "Hg2 mi
10:20 PM50 °FClear.2 mph94%30.09 "Hg10 mi
9:50 PM52 °FPassing clouds.3 mph88%30.09 "HgN/A
9:20 PM52 °FPassing clouds.2 mph88%30.09 "HgN/A
8:50 PM52 °FSunny.5 mph88%30.09 "Hg10 mi
8:20 PM54 °FSunny.5 mph88%30.09 "Hg10 mi
Weather by CustomWeather, © 2014

See weather overviewHow to use our weather pages